Weather History for Flint, MI

Change the Weather History Date:

Wednesday, January 15, 2014

  Actual Average Record
Temperature  
Mean Temperature 25 °F 22 °F  
Max Temperature 30 °F 29 °F 57 °F (1953)
Min Temperature 20 °F 15 °F -18 °F (1984)
Degree Days  
Heating Degree Days 40 43  
Month to date heating degree days 692 634  
Since 1 July heating degree days 3322 3279  
Cooling Degree Days 0 0  
Month to date cooling degree days 0 0  
Year to date cooling degree days 0 0  
Moisture  
Dew Point 15 °F    
Average Humidity 66    
Maximum Humidity 75    
Minimum Humidity 57    
Precipitation  
Precipitation T in 0.05 in 0.86 in (1932)
Month to date precipitation 1.86 0.85  
Year to date precipitation 1.86 0.85  
Snow  
Snow 0.10 in 0.40 in 2.50 in ()
Month to date snowfall 20.6 6.4  
Since 1 July snowfall 39.1 21.1  
Snow Depth 2.00 in    
Sea Level Pressure  
Sea Level Pressure 29.87 in    
Wind  
Wind Speed 13 mph (West)    
Max Wind Speed 25 mph    
Max Gust Speed 33 mph    
Visibility 10 miles    
Events Snow    
T = Trace of Precipitation, MM = Missing Value Source: NWS Daily Summary

Daily Weather History Graph

Daily Weather History Graph

Search for Another Location

Airport:

Trip Planner

Search our weather history database for the weather conditions in past years. The results will help you decide how hot, cold, wet, or windy it might be!

Date:

Astronomy

Jan. 15, 2014 Rise Set
Actual Time 8:03 AM EST 5:25 PM EST
Civil Twilight 7:31 AM EST 5:57 PM EST
Nautical Twilight 6:56 AM EST 6:32 PM EST
Astronomical Twilight 6:22 AM EST 7:06 PM EST
Moon 5:24 PM EST (1/15) 7:17 AM EST (1/15)
Length of Visible Light 10h 25m
Length of Day
9h 22m
Full, 100% of the Moon is Illuminated
Jan 15
Full
Jan 15
Full
Jan 24
Last Quarter
Jan 30
New
Feb 6
First Quarter

Hourly Weather History & Observations

Time (EST) Temp. Windchill Dew Point Humidity Pressure Visibility Wind Dir Wind Speed Gust Speed Precip Events Conditions
12:53 AM 28.9 °F 18.2 °F 17.1 °F 61% 29.71 in 10.0 mi SW 13.8 mph 23.0 mph N/A   Overcast
1:53 AM 28.0 °F 16.1 °F 16.0 °F 61% 29.69 in 10.0 mi SSW 16.1 mph 25.3 mph N/A   Unknown
2:53 AM 27.0 °F 13.9 °F 16.0 °F 63% 29.69 in 10.0 mi SW 18.4 mph 25.3 mph N/A   Overcast
3:27 AM 26.6 °F 12.7 °F 17.6 °F 69% 29.66 in 10.0 mi SSW 20.7 mph 31.1 mph N/A   Overcast
3:53 AM 27.0 °F 13.9 °F 17.1 °F 66% 29.68 in 10.0 mi SSW 18.4 mph 27.6 mph N/A   Overcast
4:53 AM 27.0 °F 16.1 °F 18.0 °F 69% 29.70 in 9.0 mi SW 12.7 mph 24.2 mph 0.00 in   Overcast
5:53 AM 27.0 °F 14.7 °F 19.0 °F 72% 29.73 in 9.0 mi SW 16.1 mph - 0.00 in   Overcast
6:11 AM 26.6 °F 16.8 °F 19.4 °F 74% 29.71 in 10.0 mi WSW 10.4 mph - N/A   Overcast
6:53 AM 28.0 °F 17.5 °F 21.0 °F 75% 29.76 in 10.0 mi West 12.7 mph - N/A   Overcast
7:03 AM 26.6 °F 13.4 °F 19.4 °F 74% 29.74 in 10.0 mi WNW 18.4 mph 28.8 mph N/A   Overcast
7:10 AM 26.6 °F 13.4 °F 17.6 °F 69% 29.75 in 10.0 mi WNW 18.4 mph - N/A   Overcast
7:53 AM 26.1 °F 12.0 °F 18.0 °F 71% 29.81 in 10.0 mi West 20.7 mph 27.6 mph N/A   Overcast
8:53 AM 25.0 °F 12.2 °F 16.0 °F 69% 29.87 in 10.0 mi West 16.1 mph - N/A   Overcast
9:53 AM 25.0 °F 12.2 °F 15.1 °F 66% 29.91 in 8.0 mi WNW 16.1 mph 27.6 mph 0.00 in Snow Light Snow
10:42 AM 24.8 °F 10.3 °F 14.0 °F 64% 29.90 in 10.0 mi WNW 20.7 mph 26.5 mph 0.00 in   Overcast
10:53 AM 25.0 °F 10.9 °F 12.9 °F 60% 29.94 in 10.0 mi WNW 19.6 mph 27.6 mph 0.00 in   Overcast
11:32 AM 24.8 °F 13.4 °F 15.8 °F 69% 29.91 in 8.0 mi West 12.7 mph - 0.00 in Snow Light Snow
11:53 AM 25.0 °F 13.1 °F 17.1 °F 72% 29.94 in 9.0 mi West 13.8 mph - 0.00 in Snow Light Snow
12:31 PM 24.8 °F 11.1 °F 12.2 °F 59% 29.91 in 10.0 mi West 18.4 mph 26.5 mph 0.00 in   Overcast
12:53 PM 25.0 °F 12.2 °F 14.0 °F 63% 29.95 in 10.0 mi WNW 16.1 mph - 0.00 in   Overcast
1:08 PM 24.8 °F 13.4 °F 14.0 °F 64% 29.91 in 10.0 mi WNW 12.7 mph - N/A   Overcast
1:53 PM 26.1 °F 15.6 °F 15.1 °F 63% 29.94 in 10.0 mi WNW 11.5 mph - N/A   Overcast
2:30 PM 26.6 °F 13.8 °F 12.2 °F 55% 29.91 in 10.0 mi West 17.3 mph - N/A   Overcast
2:53 PM 26.1 °F 16.2 °F 14.0 °F 60% 29.95 in 10.0 mi West 10.4 mph - N/A   Overcast
3:53 PM 25.0 °F 12.6 °F 14.0 °F 63% 29.97 in 9.0 mi West 15.0 mph 21.9 mph 0.00 in Snow Light Snow
4:53 PM 25.0 °F 14.8 °F 15.1 °F 66% 29.98 in 10.0 mi WSW 10.4 mph - 0.00 in   Overcast
5:53 PM 24.1 °F 12.5 °F 15.1 °F 69% 30.00 in 8.0 mi West 12.7 mph 21.9 mph 0.00 in Snow Light Snow
6:53 PM 21.0 °F 10.6 °F 10.0 °F 63% 30.00 in 10.0 mi West 9.2 mph - 0.00 in   Partly Cloudy
7:53 PM 21.0 °F 10.6 °F 9.0 °F 60% 30.01 in 10.0 mi WSW 9.2 mph - N/A   Overcast
8:53 PM 21.9 °F 14.5 °F 10.9 °F 63% 30.01 in 10.0 mi WSW 5.8 mph - N/A   Overcast
9:53 PM 21.9 °F 14.5 °F 10.9 °F 63% 29.99 in 10.0 mi SW 5.8 mph - N/A   Overcast
10:51 PM 21.2 °F 9.5 °F 10.4 °F 63% 29.94 in 10.0 mi WSW 11.5 mph - N/A   Overcast
10:53 PM 21.9 °F 11.0 °F 10.9 °F 63% 29.98 in 10.0 mi WSW 10.4 mph - N/A   Overcast
11:53 PM 19.9 °F 7.9 °F 10.0 °F 65% 29.95 in 10.0 mi SW 11.5 mph - N/A   Overcast